RH
9 9 12 12 13 9 9 18 22 22 25 31 30 32 42 34 33 59 36 32 30 31 25 25 26 28 28 29 31 32 30 27 26 25 24 23 24 23 24 24 23 22 22 21 22 23 23 22 22
15 14 13 16 13 9 12 18 15 29 29 24 28 28 34 41 32 35 33 34 35 30 26 25 25 27 28 28 29 28 25 25 27 26 26 24 25 25 25 24 24 24 25 25 25 25 25 23 22
13 16 19 13 13 11 15 19 29 28 23 24 31 35 37 42 35 38 33 32 36 32 28 24 24 28 27 27 27 25 23 26 29 29 27 25 24 25 26 26 26 25 25 26 27 27 27 27 25
20 18 16 15 15 19 22 20 22 27 23 29 40 43 33 36 37 38 33 34 39 36 35 24 24 28 28 28 27 25 27 29 31 29 27 26 24 23 23 25 26 26 26 26 27 28 28 29 29
21 24 24 19 21 20 17 17 21 27 28 28 31 47 44 34 37 34 35 38 41 41 40 27 25 29 30 29 27 27 29 31 32 29 27 26 24 22 22 22 24 25 25 25 26 28 29 30 30
26 24 23 22 23 18 16 16 19 32 35 32 31 39 41 37 40 40 38 40 42 41 36 28 27 30 32 31 29 28 30 31 32 32 30 28 27 25 23 23 23 24 25 26 27 27 29 31 32
27 24 24 23 25 21 22 19 20 36 35 34 35 40 46 37 40 43 41 42 42 40 36 30 29 31 33 33 30 29 30 31 32 31 29 27 27 27 25 24 23 23 23 24 27 29 30 30 31
24 23 22 22 24 24 24 21 22 35 41 37 29 44 46 38 36 43 42 41 40 38 38 34 32 32 33 33 33 32 32 33 34 33 30 29 28 28 28 28 27 26 25 25 26 27 29 30 31
21 23 24 22 23 25 23 23 24 27 31 32 30 35 45 32 34 40 38 38 39 41 40 38 38 34 34 33 33 34 35 35 34 34 32 31 32 32 32 32 33 31 31 30 30 30 30 30 31
22 25 25 21 22 24 22 21 25 25 28 34 35 28 32 32 35 37 41 40 40 40 41 40 38 38 38 40 35 34 36 38 37 35 33 33 45 42 42 37 34 35 35 36 36 36 36 38 45
23 24 25 21 21 21 22 20 22 26 29 33 35 37 34 33 35 35 37 39 38 39 41 37 38 40 40 41 39 39 38 40 40 43 42 42 43 42 39 42 39 39 40 40 44 45 47 52 51
22 22 21 22 22 21 21 21 23 24 29 30 35 41 38 34 38 37 39 43 41 38 39 41 40 40 40 44 38 38 40 41 43 48 50 48 41 42 46 51 53 49 52 54 54 55 53 55 57
20 21 21 22 21 21 21 21 21 24 26 28 29 31 41 37 40 40 42 43 44 41 39 38 34 35 36 38 37 41 42 40 42 53 54 52 50 50 51 54 55 57 57 57 57 57 59 60 62
21 20 21 21 21 21 21 20 21 21 23 25 27 28 33 36 39 42 43 44 45 43 40 38 36 34 35 36 41 40 42 44 46 51 52 49 56 55 58 54 56 54 55 58 54 56 54 57 44
22 20 19 19 21 21 21 21 20 21 22 23 26 29 31 36 40 42 48 46 44 43 41 42 36 36 36 39 39 39 45 48 51 51 51 54 61 57 63 61 56 55 53 51 48 45 38 33 36
24 23 20 17 22 23 23 17 24 26 23 23 25 29 32 34 40 44 51 51 51 46 46 43 41 39 38 42 41 46 49 55 55 54 54 61 56 57 59 60 55 49 46 43 35 28 31 31 32
25 22 19 18 24 28 24 18 22 29 23 22 26 28 29 33 38 44 53 55 54 52 48 47 43 44 43 47 46 52 57 58 55 53 50 51 56 58 59 59 48 42 33 24 25 29 31 33 37
20 21 21 20 26 28 29 22 18 30 23 21 24 25 27 29 33 41 52 54 54 56 54 49 46 46 48 49 51 55 58 60 59 55 51 52 52 53 52 46 37 23 25 28 32 32 34 35 37
20 19 20 23 23 29 30 28 22 22 28 25 23 24 24 27 30 37 47 55 50 57 54 49 50 46 49 53 56 57 58 60 58 55 54 54 51 47 41 32 24 27 33 34 35 35 34 36 39
24 23 20 22 22 25 27 27 27 24 25 25 23 24 23 26 29 33 44 52 52 53 51 52 52 47 49 54 61 62 61 62 62 57 54 50 46 38 28 27 31 32 36 38 38 35 37 38 39
24 24 24 21 23 21 27 22 24 25 25 22 20 22 22 23 26 32 39 48 51 52 51 52 52 48 49 56 63 63 63 65 64 59 58 50 40 31 30 32 36 34 37 39 39 39 41 41 40
22 23 25 23 24 22 26 22 23 25 26 23 23 24 22 22 24 30 36 46 50 49 53 54 51 48 54 56 61 61 64 63 64 63 60 52 41 37 36 36 36 35 40 42 41 42 43 42 41
18 24 26 24 26 27 22 28 21 21 21 22 22 25 25 24 25 28 34 41 52 55 52 52 52 53 59 58 62 65 66 69 68 64 63 55 45 43 43 40 39 43 44 45 46 47 46 44 43
26 31 31 28 32 38 21 27 17 20 20 22 22 22 24 27 28 28 32 38 47 57 56 54 56 55 62 60 65 65 67 67 68 66 66 58 51 47 46 45 47 48 47 50 51 51 48 47 46
33 35 39 42 41 33 21 28 16 18 21 22 22 22 23 28 30 28 33 37 47 55 56 56 58 59 63 62 66 70 71 75 73 72 64 56 51 51 50 48 50 50 52 55 53 50 50 48 47
39 40 43 42 36 31 23 33 15 17 20 21 25 25 24 26 31 30 34 39 50 56 58 60 61 61 63 66 69 72 76 79 77 72 64 57 54 52 51 49 50 54 54 54 51 48 50 47 45
47 50 35 46 38 36 22 21 17 20 22 25 27 25 24 25 29 33 35 40 53 59 59 60 59 61 64 71 77 78 82 79 74 67 62 58 55 53 48 50 54 57 58 56 51 52 48 46 44
50 52 57 59 66 52 27 21 16 18 18 24 29 29 26 28 30 31 40 47 57 62 62 62 63 65 70 75 79 86 80 77 74 66 62 57 51 51 53 56 57 59 59 54 54 51 48 44 40
50 56 54 57 63 58 45 27 21 18 19 22 31 34 31 29 34 36 44 52 58 63 63 64 68 72 76 78 78 76 76 77 69 66 60 54 53 55 56 58 60 62 57 55 55 51 46 42 39
48 54 54 67 62 54 54 37 27 27 27 30 34 36 31 32 33 41 46 56 56 60 61 60 65 70 72 74 75 73 75 70 71 65 59 57 57 57 60 62 64 62 57 60 55 47 44 41 40